Find Starlink 11295

NORAD ID: 61536 Int'l Des: 2024-184 Owner: SPXS Country: US Constellation: starlink operational
LEOCIRCULAR

Current View

Loading 3D Globe...

About Starlink 11295

Starlink 11295 (NORAD 61536) is a starlink constellation satellite (v2 mini d2c) launched Oct 15, 2024 by SPXS of US. It operates in LEO, CIRCULAR orbit with a mass of 960.00 kg.

About Starlink 11295

Description loading...

Upcoming Passes

Passes for default location (London). Set your location on the main map for personalized predictions.

Altitude History

Loading altitude history...

Two-Line Element Set

1 61536U 24184E 26170.97562222 .00001296 00000-0 15555-4 0 9994
2 61536 53.1599 91.9521 0001387 118.9337 241.1821 15.69717311 96480
Epoch: Jun 19, 2026 • Age: 27 hours

Current Status

Altitude 372.9 km
Velocity 7.69 km/s
Sub-Earth Point -37.96°S, 100.87°E
Launch Date Oct 15, 2024
Age 1.6 years
Type internet

Technical Details

Classification Payload
Mass 960.00 kg
Dry Mass 910.00 kg
Total Mass 960.00 kg
Length 0.30 m
Diameter 4.10 m
Span 29.00 m
Shape Box + pan
Manufacturer SPXS
Bus Type Starlink V2MD
Phase Status In Orbit
Owner/State SPXS/US

Most Searched